Hourly Weather Roundup
Issued by NWS Central Illinois

Home | Current Version | Previous Version | Text Only | Print | Product List | Glossary On
Versions: 1 2 3 4 5 6 7 8 9 10 11 12 13 14 15 16 17 18 19 20 21 22 23 24 25 26 27 28 29 30 31 32 33 34 35 36 37 38 39 40 41 42 43 44 45 46 47 48 49 50
000
NZUS43 KILX 041036
HWRILX

AREA WEATHER ROUNDUP
NATIONAL WEATHER SERVICE, LINCOLN IL
400 AM CST WED MAR 04 2015


CITY           SKY/WX    TMP DP  RH WIND       PRES   REMARKS
BLOOMINGTON    PTCLDY    19  14  79 NW16G25   30.02R WCI   5
CHAMPAIGN      CLOUDY    29  25  85 NW16      29.97R WCI  17
DECATUR        CLOUDY    29  24  82 NW13      30.00R WCI  19
EFFINGHAM      CLOUDY    34  29  83 NW8       29.99R WCI  27
FLORA          CLOUDY    33  33 100 NW7       29.98R WCI  26
GALESBURG      MOCLDY    12   6  77 NW14      30.08R WCI  -3
JACKSONVILLE   PTCLDY    22  14  70 NW20      30.08R WCI   7
LACON          CLEAR     14   7  73 NW14      30.06R WCI  -1
LAWRENCEVILLE  RAIN      34  32  92 NW8       29.96R WCI  27
LITCHFIELD     CLOUDY    28  23  79 N20       30.01R WCI  15
$$


CITY           SKY/WX    TMP DP  RH WIND       PRES   REMARKS
LINCOLN        PTCLDY    24  15  70 NW13G22   30.06R WCI  12
MACOMB         PTCLDY    13   8  81 NW16      30.12R WCI  -3
MATTOON        MOCLDY    32  28  85 NW12      29.98R WCI  23
MT CARMEL AP   RAIN      36  34  93 NW6       29.95R WCI  31
OLNEY-NOBLE AP CLOUDY    32  32 100 NW5       29.97R FOG     WCI  27
PARIS          CLOUDY    32  31  93 NW6       29.97R WCI  27
PEORIA         PTCLDY    18   9  68 NW12G22   30.07R WCI   5
PONTIAC        CLOUDY    19  14  81 NW17G25   30.02R WCI   4
RANTOUL        CLOUDY    28  23  82 NW16      29.98R WCI  16
ROBINSON       LGT RAIN  33  32  96 NW5       29.96S WCI  29
SPRINGFIELD    CLOUDY    25  17  72 NW15      30.04R WCI  13
TAYLORVILLE    CLOUDY    28  23  80 NW14      30.01S WCI  17
$$

...REGIONAL REPORTS...


CITY           SKY/WX    TMP DP  RH WIND       PRES   REMARKS
CHICAGO O`HARE MOCLDY    23  17  78 NW17      29.92R WCI   9
KANKAKEE       CLOUDY    27  24  86 W18G24    29.96R WCI  14
MOLINE         CLEAR     12   2  64 NW17G24   30.09R WCI  -5
MOUNT VERNON   CLOUDY    34  28  80 N5        29.97R WCI  30
PITTSFIELD     FAIR      22  15  74 N14       30.10R WCI   9
QUINCY         PTCLDY    17   8  67 N18       30.10R WCI   1
ROCKFORD       MOCLDY    14   6  70 NW13      29.99R WCI   0
$$


CITY           SKY/WX    TMP DP  RH WIND       PRES   REMARKS
BURLINGTON     CLEAR     13   4  67 NW15G23   30.11R WCI  -3
CEDAR RAPIDS   CLEAR      7   2  80 NW13      30.10R WCI  -9
DES MOINES     MOCLDY    15   1  53 N12       30.16S WCI   2
KIRKSVILLE     NOT AVBL
OTTUMWA        CLOUDY    13   4  67 NW14      30.15R WCI  -2
ST LOUIS       CLOUDY    35  29  78 N15       30.00S WCI  25
$$


CITY           SKY/WX    TMP DP  RH WIND       PRES   REMARKS
TERRE HAUTE    CLOUDY    33  29  85 NW6       29.94R WCI  28
EVANSVILLE     LGT RAIN  37  33  85 N10       29.97R WCI  30
INDIANAPOLIS   CLOUDY    33  27  78 NW7       29.88S WCI  27
LAFAYETTE      MOCLDY    30  26  85 W6        29.92R WCI  24
MADISON        CLEAR     14   5  67 NW8       29.96R WCI   3
MILWAUKEE      CLEAR     21   9  59 NW13      29.91R WCI   9
$$





USA.gov is the U.S. government's official web portal to all federal, state and local government web resources and services.